Time,TemperatureF,DewpointF,PressureIn,WindDirection,WindDirectionDegrees,WindSpeedMPH,WindSpeedGustMPH,Humidity,HourlyPrecipIn,Conditions,Clouds,dailyrainin,SoftwareType,DateUTC
2013-01-29 00:10:00,34.7,32.0,29.30,South,177,0.0,2.0,91,0.00,,,0.00,weatherlink.com 1.10,2013-01-29 05:10:00,
2013-01-29 00:25:00,34.5,32.0,29.29,South,176,1.0,1.0,91,0.00,,,0.00,weatherlink.com 1.10,2013-01-29 05:25:00,
2013-01-29 00:40:00,34.5,32.0,29.28,SSE,168,0.0,2.0,91,0.00,,,0.00,weatherlink.com 1.10,2013-01-29 05:40:00,
2013-01-29 00:55:00,34.0,32.0,29.27,South,169,0.0,1.0,91,0.00,,,0.00,weatherlink.com 1.10,2013-01-29 05:55:00,
2013-01-29 01:10:00,33.3,31.0,29.27,South,169,0.0,1.0,92,0.00,,,0.00,weatherlink.com 1.10,2013-01-29 06:10:00,
2013-01-29 01:25:00,33.1,31.0,29.25,South,169,0.0,1.0,92,0.00,,,0.00,weatherlink.com 1.10,2013-01-29 06:25:00,
2013-01-29 01:40:00,33.6,32.0,29.25,SSE,168,1.0,1.0,93,0.00,,,0.00,weatherlink.com 1.10,2013-01-29 06:40:00,
2013-01-29 01:55:00,34.1,32.0,29.26,South,189,1.0,2.0,92,0.00,,,0.00,weatherlink.com 1.10,2013-01-29 06:55:00,
2013-01-29 02:10:00,34.1,32.0,29.25,South,170,0.0,1.0,92,0.00,,,0.00,weatherlink.com 1.10,2013-01-29 07:10:00,
2013-01-29 02:25:00,34.1,32.0,29.24,ESE,115,0.0,2.0,92,0.00,,,0.00,weatherlink.com 1.10,2013-01-29 07:25:00,
2013-01-29 02:40:00,34.5,33.0,29.24,SE,146,0.0,4.0,92,0.00,,,0.00,weatherlink.com 1.10,2013-01-29 07:40:00,
2013-01-29 02:55:00,34.5,33.0,29.24,SSE,168,2.0,3.0,92,0.00,,,0.00,weatherlink.com 1.10,2013-01-29 07:55:00,
2013-01-29 03:10:00,34.7,33.0,29.24,ESE,118,2.0,3.0,92,0.00,,,0.00,weatherlink.com 1.10,2013-01-29 08:10:00,
2013-01-29 03:25:00,34.7,33.0,29.23,SSE,159,2.0,4.0,92,0.00,,,0.00,weatherlink.com 1.10,2013-01-29 08:25:00,
2013-01-29 03:40:00,34.6,33.0,29.22,SE,130,2.0,3.0,92,0.00,,,0.00,weatherlink.com 1.10,2013-01-29 08:40:00,
2013-01-29 03:55:00,34.5,33.0,29.20,SE,131,1.0,3.0,92,0.00,,,0.00,weatherlink.com 1.10,2013-01-29 08:55:00,
2013-01-29 04:10:00,34.4,32.0,29.20,SE,124,1.0,4.0,92,0.00,,,0.00,weatherlink.com 1.10,2013-01-29 09:10:00,
2013-01-29 04:25:00,34.4,33.0,29.20,ESE,118,1.0,5.0,93,0.00,,,0.00,weatherlink.com 1.10,2013-01-29 09:25:00,
2013-01-29 04:40:00,34.3,33.0,29.18,SE,135,2.0,5.0,93,0.00,,,0.00,weatherlink.com 1.10,2013-01-29 09:40:00,
2013-01-29 04:55:00,34.1,32.0,29.17,SE,135,5.0,6.0,93,0.00,,,0.00,weatherlink.com 1.10,2013-01-29 09:55:00,
2013-01-29 05:10:00,34.0,33.0,29.16,East,81,2.0,6.0,94,0.02,,,0.02,weatherlink.com 1.10,2013-01-29 10:10:00,
2013-01-29 05:26:00,33.9,32.0,29.16,SE,130,0.0,4.0,94,0.05,,,0.05,weatherlink.com 1.10,2013-01-29 10:26:00,
2013-01-29 05:41:00,33.7,33.0,29.14,SE,129,1.0,4.0,95,0.12,,,0.12,weatherlink.com 1.10,2013-01-29 10:41:00,
2013-01-29 05:55:00,33.6,32.0,29.12,SE,138,2.0,4.0,95,0.17,,,0.17,weatherlink.com 1.10,2013-01-29 10:55:00,
2013-01-29 06:10:00,33.6,33.0,29.13,SSE,167,2.0,6.0,96,0.20,,,0.22,weatherlink.com 1.10,2013-01-29 11:10:00,
2013-01-29 06:25:00,33.8,33.0,29.15,SSE,167,0.0,4.0,96,0.22,,,0.28,weatherlink.com 1.10,2013-01-29 11:25:00,
2013-01-29 06:41:00,33.7,33.0,29.12,ESE,117,1.0,3.0,96,0.23,,,0.36,weatherlink.com 1.10,2013-01-29 11:41:00,
2013-01-29 06:55:00,33.7,33.0,29.09,ESE,115,2.0,4.0,96,0.25,,,0.43,weatherlink.com 1.10,2013-01-29 11:55:00,
2013-01-29 07:10:00,33.7,33.0,29.09,ENE,78,1.0,3.0,96,0.22,,,0.45,weatherlink.com 1.10,2013-01-29 12:10:00,
2013-01-29 07:25:00,33.7,33.0,29.09,East,86,1.0,5.0,96,0.17,,,0.46,weatherlink.com 1.10,2013-01-29 12:25:00,
2013-01-29 07:41:00,33.7,33.0,29.10,NNE,30,2.0,3.0,96,0.14,,,0.50,weatherlink.com 1.10,2013-01-29 12:41:00,
2013-01-29 07:56:00,33.7,33.0,29.08,SE,124,1.0,3.0,96,0.11,,,0.54,weatherlink.com 1.10,2013-01-29 12:56:00,
2013-01-29 08:11:00,33.9,33.0,29.07,ESE,111,2.0,3.0,96,0.10,,,0.55,weatherlink.com 1.10,2013-01-29 13:11:00,
2013-01-29 08:26:00,34.1,33.0,29.07,East,89,1.0,3.0,97,0.10,,,0.56,weatherlink.com 1.10,2013-01-29 13:26:00,
2013-01-29 08:41:00,34.2,34.0,29.07,East,96,0.0,2.0,97,0.07,,,0.57,weatherlink.com 1.10,2013-01-29 13:41:00,
2013-01-29 08:56:00,34.5,34.0,29.06,SE,126,0.0,2.0,97,0.03,,,0.57,weatherlink.com 1.10,2013-01-29 13:56:00,
2013-01-29 09:11:00,34.9,34.0,29.05,ENE,60,1.0,3.0,97,0.02,,,0.57,weatherlink.com 1.10,2013-01-29 14:11:00,
2013-01-29 09:26:00,35.2,35.0,29.05,East,93,0.0,1.0,97,0.01,,,0.57,weatherlink.com 1.10,2013-01-29 14:26:00,
2013-01-29 09:41:00,35.8,35.0,29.04,SE,126,1.0,3.0,97,0.01,,,0.58,weatherlink.com 1.10,2013-01-29 14:41:00,
2013-01-29 09:56:00,36.3,36.0,29.03,SE,139,1.0,3.0,97,0.01,,,0.58,weatherlink.com 1.10,2013-01-29 14:56:00,
2013-01-29 10:11:00,37.1,36.0,29.03,SSE,150,1.0,4.0,97,0.01,,,0.58,weatherlink.com 1.10,2013-01-29 15:11:00,
2013-01-29 10:26:00,38.3,38.0,29.02,SSE,155,1.0,4.0,97,0.01,,,0.58,weatherlink.com 1.10,2013-01-29 15:26:00,
2013-01-29 10:41:00,39.1,38.0,29.02,SSE,155,1.0,4.0,97,0.00,,,0.58,weatherlink.com 1.10,2013-01-29 15:41:00,
2013-01-29 10:56:00,39.7,39.0,29.02,SE,136,1.0,5.0,97,0.00,,,0.58,weatherlink.com 1.10,2013-01-29 15:56:00,
2013-01-29 11:11:00,40.1,39.0,29.02,South,181,2.0,5.0,97,0.01,,,0.59,weatherlink.com 1.10,2013-01-29 16:11:00,
2013-01-29 11:26:00,40.8,40.0,29.02,SSE,163,2.0,5.0,97,0.07,,,0.65,weatherlink.com 1.10,2013-01-29 16:26:00,
2013-01-29 11:41:00,41.1,40.0,29.01,SSW,197,4.0,6.0,97,0.09,,,0.67,weatherlink.com 1.10,2013-01-29 16:41:00,
2013-01-29 11:56:00,41.3,41.0,29.00,South,187,1.0,6.0,97,0.09,,,0.67,weatherlink.com 1.10,2013-01-29 16:56:00,
2013-01-29 12:11:00,41.8,41.0,28.99,SSW,194,3.0,8.0,97,0.08,,,0.67,weatherlink.com 1.10,2013-01-29 17:11:00,
2013-01-29 12:26:00,42.5,42.0,28.98,South,176,2.0,6.0,98,0.02,,,0.67,weatherlink.com 1.10,2013-01-29 17:26:00,
2013-01-29 12:42:00,43.2,43.0,28.97,SSE,148,2.0,4.0,98,0.00,,,0.67,weatherlink.com 1.10,2013-01-29 17:42:00,
2013-01-29 12:56:00,44.3,44.0,28.96,SSE,160,2.0,4.0,98,0.00,,,0.67,weatherlink.com 1.10,2013-01-29 17:56:00,
2013-01-29 13:11:00,45.5,45.0,28.96,SSW,194,4.0,6.0,98,0.00,,,0.67,weatherlink.com 1.10,2013-01-29 18:11:00,
2013-01-29 13:27:00,46.1,46.0,28.95,SSE,155,3.0,8.0,98,0.00,,,0.67,weatherlink.com 1.10,2013-01-29 18:27:00,
2013-01-29 13:42:00,46.5,46.0,28.94,SSW,195,4.0,7.0,98,0.00,,,0.67,weatherlink.com 1.10,2013-01-29 18:42:00,
2013-01-29 13:57:00,47.1,47.0,28.93,South,172,3.0,5.0,98,0.00,,,0.67,weatherlink.com 1.10,2013-01-29 18:57:00,
2013-01-29 14:12:00,47.9,47.0,28.93,SSE,155,3.0,3.0,98,0.00,,,0.67,weatherlink.com 1.10,2013-01-29 19:12:00,
2013-01-29 14:27:00,48.7,48.0,28.91,SSE,158,4.0,6.0,98,0.00,,,0.67,weatherlink.com 1.10,2013-01-29 19:27:00,
2013-01-29 14:42:00,49.7,49.0,28.91,South,184,6.0,8.0,98,0.00,,,0.67,weatherlink.com 1.10,2013-01-29 19:42:00,
2013-01-29 15:12:00,51.6,51.0,28.92,SSW,197,1.0,4.0,98,0.00,,,0.67,weatherlink.com 1.10,2013-01-29 20:12:00,
2013-01-29 15:27:00,52.0,52.0,28.93,SW,224,2.0,5.0,98,0.00,,,0.67,weatherlink.com 1.10,2013-01-29 20:27:00,
2013-01-29 15:42:00,52.7,52.0,28.93,SSE,159,3.0,8.0,98,0.00,,,0.67,weatherlink.com 1.10,2013-01-29 20:42:00,
2013-01-29 15:57:00,53.2,53.0,28.91,South,172,4.0,9.0,98,0.00,,,0.67,weatherlink.com 1.10,2013-01-29 20:57:00,
2013-01-29 16:12:00,53.3,53.0,28.91,SW,214,7.0,9.0,98,0.00,,,0.67,weatherlink.com 1.10,2013-01-29 21:12:00,
2013-01-29 16:27:00,53.3,53.0,28.91,SSW,207,5.0,8.0,98,0.00,,,0.67,weatherlink.com 1.10,2013-01-29 21:27:00,
2013-01-29 16:42:00,53.5,53.0,28.91,SW,228,2.0,8.0,98,0.00,,,0.67,weatherlink.com 1.10,2013-01-29 21:42:00,
2013-01-29 16:57:00,53.6,53.0,28.91,South,179,1.0,6.0,98,0.00,,,0.67,weatherlink.com 1.10,2013-01-29 21:57:00,
2013-01-29 17:12:00,53.6,53.0,28.91,South,183,3.0,5.0,97,0.00,,,0.67,weatherlink.com 1.10,2013-01-29 22:12:00,
2013-01-29 17:27:00,53.6,53.0,28.90,SSW,198,3.0,8.0,97,0.00,,,0.67,weatherlink.com 1.10,2013-01-29 22:27:00,
2013-01-29 17:42:00,53.6,53.0,28.90,South,190,1.0,9.0,97,0.00,,,0.67,weatherlink.com 1.10,2013-01-29 22:42:00,
2013-01-29 17:58:00,53.6,53.0,28.90,SSE,166,3.0,9.0,97,0.00,,,0.67,weatherlink.com 1.10,2013-01-29 22:58:00,
2013-01-29 18:12:00,53.6,53.0,28.89,SSW,205,4.0,7.0,97,0.00,,,0.67,weatherlink.com 1.10,2013-01-29 23:12:00,
2013-01-29 18:28:00,53.4,53.0,28.90,SSE,156,3.0,9.0,97,0.00,,,0.67,weatherlink.com 1.10,2013-01-29 23:28:00,
2013-01-29 18:42:00,53.1,52.0,28.89,SE,137,2.0,4.0,97,0.00,,,0.67,weatherlink.com 1.10,2013-01-29 23:42:00,
2013-01-29 18:57:00,53.0,52.0,28.88,SSE,158,2.0,8.0,97,0.05,,,0.72,weatherlink.com 1.10,2013-01-29 23:57:00,
2013-01-29 19:12:00,53.0,52.0,28.88,SSW,192,4.0,6.0,97,0.11,,,0.78,weatherlink.com 1.10,2013-01-30 00:12:00,
2013-01-29 19:28:00,53.2,52.0,28.87,South,191,4.0,8.0,97,0.12,,,0.79,weatherlink.com 1.10,2013-01-30 00:28:00,
2013-01-29 19:42:00,53.3,53.0,28.86,SSW,198,3.0,7.0,97,0.15,,,0.82,weatherlink.com 1.10,2013-01-30 00:42:00,
2013-01-29 19:57:00,53.5,53.0,28.86,SW,225,1.0,5.0,97,0.15,,,0.87,weatherlink.com 1.10,2013-01-30 00:57:00,
2013-01-29 20:12:00,53.4,53.0,28.85,SSE,167,4.0,5.0,97,0.19,,,0.97,weatherlink.com 1.10,2013-01-30 01:12:00,
2013-01-29 20:28:00,53.3,53.0,28.84,SSE,157,4.0,6.0,97,0.19,,,0.98,weatherlink.com 1.10,2013-01-30 01:28:00,
2013-01-29 20:43:00,53.4,53.0,28.83,SSE,166,3.0,7.0,98,0.16,,,0.98,weatherlink.com 1.10,2013-01-30 01:43:00,
2013-01-29 20:58:00,53.2,52.0,28.81,SSE,157,2.0,9.0,97,0.11,,,0.99,weatherlink.com 1.10,2013-01-30 01:58:00,
2013-01-29 21:13:00,52.9,52.0,28.80,SSE,148,3.0,7.0,97,0.02,,,0.99,weatherlink.com 1.10,2013-01-30 02:13:00,
2013-01-29 21:28:00,52.9,52.0,28.79,South,186,5.0,8.0,97,0.01,,,0.99,weatherlink.com 1.10,2013-01-30 02:28:00,
2013-01-29 21:43:00,53.0,52.0,28.77,SE,133,4.0,8.0,97,0.01,,,0.99,weatherlink.com 1.10,2013-01-30 02:43:00,
2013-01-29 21:58:00,53.3,53.0,28.76,SSE,152,6.0,9.0,97,0.00,,,0.99,weatherlink.com 1.10,2013-01-30 02:58:00,
2013-01-29 22:13:00,53.4,53.0,28.75,SSE,167,4.0,8.0,97,0.00,,,0.99,weatherlink.com 1.10,2013-01-30 03:13:00,
2013-01-29 22:28:00,53.6,53.0,28.74,SSE,148,6.0,9.0,97,0.01,,,1.00,weatherlink.com 1.10,2013-01-30 03:28:00,
2013-01-29 22:44:00,53.6,53.0,28.75,South,173,3.0,12.0,97,0.30,,,1.29,weatherlink.com 1.10,2013-01-30 03:44:00,
2013-01-29 22:58:00,53.6,53.0,28.74,SW,217,4.0,11.0,97,0.34,,,1.33,weatherlink.com 1.10,2013-01-30 03:58:00,
2013-01-29 23:13:00,53.4,53.0,28.73,SSE,158,8.0,10.0,97,0.39,,,1.38,weatherlink.com 1.10,2013-01-30 04:13:00,
2013-01-29 23:43:00,53.2,52.0,28.70,South,183,4.0,6.0,97,0.11,,,1.40,weatherlink.com 1.10,2013-01-30 04:43:00,
2013-01-29 23:58:00,53.3,53.0,28.69,SSE,168,2.0,5.0,97,0.07,,,1.40,weatherlink.com 1.10,2013-01-30 04:58:00,